[[{"header":{"parameterUnit":"m.s-1","parameterCategory":1,"la1":30.2991,"la2":30.254,"lo1":-89.0895,"lo2":-89.0444,"dy":0.0017,"dx":0.0017,"nx":28,"ny":28,"refTime":"2024-07-02T21:00:00:Z","depth":0,"parameterNumber":2,"parameterNumberName":"U-component_of_WINDS"},"data":[0,0,0,0,0,0,0,0,0,0,0,0,0,0,0,0,0,0,0,0,0,0,0,0,0,0,0,0,0,0,0,0,0,0,0,0,0,0,0,0,0,0,0,0,0,0,0,0,0,0,0,0,0,0,0,0,0,0,-0.5304,-0.5303,0,-0.522,-0.5219,-0.5218,-0.5229,-0.523,-0.5231,-0.5233,-0.5143,-0.5139,-0.5135,0,0,0,0,0,0,0,0,0,0,0,0,0,-0.5469,-0.5466,-0.5304,-0.5303,-0.5302,-0.522,-0.5219,-0.5218,-0.5228,-0.523,-0.5232,-0.5233,-0.5144,-0.514,-0.5135,0,0,0,0,0,0,0,0,0,0,0,0,0,-0.5393,-0.5465,-0.5304,-0.5297,-0.5296,-0.522,-0.5219,-0.5217,-0.5228,-0.523,-0.5232,-0.5234,-0.5145,-0.514,-0.5134,-0.5059,0,0,-0.5118,-0.5115,0,0,0,0,0,0,0,0,-0.5397,-0.5387,-0.5299,-0.5298,-0.5296,-0.5237,-0.5244,-0.5164,-0.5228,-0.5254,-0.5233,-0.5235,-0.5172,-0.5165,-0.5144,-0.5055,-0.5051,-0.5117,-0.5114,-0.5111,-0.511,0,0,0,0,0,0,0,-0.5402,-0.539,-0.5271,-0.5298,-0.5296,-0.5297,-0.5289,-0.5229,-0.5202,-0.5252,-0.5252,-0.5242,-0.5172,-0.5149,-0.5142,-0.505,-0.5117,-0.5112,-0.5109,-0.5107,-0.4892,-0.489,0,0,0,0,0,0,-0.541,-0.5395,-0.5273,-0.5268,-0.5353,-0.5293,-0.5283,-0.5254,-0.5203,-0.5197,-0.5241,-0.5243,-0.5158,-0.5148,-0.5139,-0.5045,-0.5111,-0.5106,-0.5103,-0.4894,-0.4891,-0.4889,0,0,0,0,0,0,-0.5413,-0.5399,-0.5277,-0.5331,-0.5316,-0.5288,-0.5255,-0.5251,-0.5229,-0.5195,-0.519,-0.5223,-0.5159,-0.5147,-0.5079,-0.5042,-0.5104,-0.5099,-0.4897,-0.4893,-0.489,-0.4859,0,0,0,0,0,0,-0.5418,-0.54,-0.5372,-0.5331,-0.5313,-0.5219,-0.5253,-0.5248,-0.522,-0.5222,-0.5177,-0.5171,-0.516,-0.5087,-0.5073,-0.5036,-0.5094,-0.49,-0.4895,-0.4891,-0.4863,-0.4854,-0.4847,0,0,0,0,0,-0.5424,-0.5366,-0.5371,-0.5356,-0.5278,-0.5217,-0.5206,-0.5195,-0.5217,-0.5188,-0.5166,-0.5173,-0.5049,-0.508,-0.5064,-0.5025,-0.4902,-0.4897,-0.4892,-0.4866,-0.4856,-0.4847,0,0,0,0,0,0,-0.5403,-0.5361,-0.5365,-0.5292,-0.5258,-0.5219,-0.5181,-0.5185,-0.5143,-0.5147,-0.5134,-0.5124,-0.5054,-0.5033,-0.5068,-0.4948,-0.4978,-0.497,-0.4964,-0.4954,-0.4947,-0.4952,-0.509,0,0,0,0,0,-0.539,-0.5345,-0.5311,-0.525,-0.5232,-0.521,-0.5183,-0.5178,-0.5141,-0.5126,-0.5099,-0.5062,-0.5015,-0.4984,-0.4939,-0.4861,-0.4849,-0.4826,-0.4818,-0.4812,-0.4804,-0.4759,-0.4747,-0.4871,-0.4871,-0.4871,0,0,-0.5362,-0.5334,-0.5306,-0.5245,-0.5217,-0.517,-0.5198,-0.5147,-0.511,-0.5118,-0.5052,-0.5031,-0.4989,-0.4915,-0.4881,-0.4895,-0.4767,-0.4805,-0.48,-0.4795,-0.4752,-0.474,-0.473,-0.4867,-0.4868,-0.4869,0,0,-0.5287,-0.5262,-0.5208,-0.518,-0.5139,-0.5124,-0.5111,-0.5071,-0.5058,-0.4992,-0.4996,-0.4953,-0.4872,-0.4841,-0.4815,-0.4728,-0.4732,-0.4714,-0.4672,-0.4629,-0.4619,-0.461,-0.4577,-0.4565,-0.4706,-0.4706,-0.4706,0,-0.5257,-0.5187,-0.5179,-0.5127,-0.5099,-0.5105,-0.5049,-0.5022,-0.4968,-0.4948,-0.4965,-0.4863,-0.4835,-0.4753,-0.4732,-0.4712,-0.4694,-0.4718,-0.4621,-0.4612,-0.4604,-0.4572,-0.456,-0.4704,-0.4704,-0.4704,-0.4705,0,-0.5151,-0.5102,-0.5063,-0.5012,-0.498,-0.4926,-0.4908,-0.4876,-0.4874,-0.4857,-0.4788,-0.4756,-0.4703,-0.4684,-0.4681,-0.4601,-0.461,-0.4625,-0.4654,-0.459,-0.456,-0.4548,-0.4701,-0.4702,-0.4702,-0.4703,0,0,-0.5059,-0.5004,-0.4989,-0.4965,-0.492,-0.4882,-0.4828,-0.4778,-0.4749,-0.4712,-0.4665,-0.4597,-0.4609,-0.4579,-0.4573,-0.4535,-0.4465,-0.4554,-0.4552,-0.4536,-0.4373,-0.436,-0.4346,-0.4469,-0.4467,-0.4465,-0.4375,0,-0.4977,-0.4883,-0.4874,-0.4788,-0.4742,-0.4747,-0.47,-0.4666,-0.4649,-0.4606,-0.4587,-0.4538,-0.456,-0.4542,-0.4505,-0.4482,-0.4432,-0.4489,-0.4423,-0.442,-0.443,-0.4331,-0.4318,-0.4235,-0.4364,-0.4362,-0.436,0,-0.4869,-0.4829,-0.4739,-0.47,-0.468,-0.4638,-0.459,-0.455,-0.4512,-0.4502,-0.4469,-0.4468,-0.441,-0.4444,-0.4363,-0.4402,-0.4374,-0.4359,-0.4356,-0.4347,-0.4385,-0.4317,-0.4208,-0.4195,-0.4342,-0.4343,-0.4345,0,-0.4808,-0.4732,-0.4668,-0.4647,-0.46,-0.457,-0.4549,-0.4513,-0.4483,-0.4441,-0.4421,-0.4373,-0.4346,-0.4308,-0.4293,-0.432,-0.4212,-0.4245,-0.42,-0.42,-0.4175,-0.4177,-0.4058,-0.4162,-0.4162,-0.4163,-0.4163,0,-0.4716,-0.4661,-0.4639,-0.4599,-0.4536,-0.4527,-0.4464,-0.4444,-0.4412,-0.4367,-0.437,-0.4327,-0.4311,-0.4266,-0.4254,-0.4187,-0.4176,-0.4164,-0.4161,-0.4162,-0.4164,-0.4142,-0.4147,-0.4159,-0.416,-0.4161,-0.4161,0,-0.4636,-0.462,-0.455,-0.4512,-0.4501,-0.4456,-0.4422,-0.4383,-0.4367,-0.431,-0.4296,-0.4271,-0.4217,-0.4199,-0.4134,-0.4126,-0.4048,-0.4051,-0.4061,-0.406,-0.4015,-0.4018,-0.3876,-0.3856,-0.3976,-0.3975,-0.3974,0,-0.4578,-0.4535,-0.4492,-0.4463,-0.4441,-0.4394,-0.4363,-0.4352,-0.4319,-0.4272,-0.4238,-0.4186,-0.4143,-0.4057,-0.4031,-0.3981,-0.3981,-0.3935,-0.3974,-0.3976,-0.3977,-0.3979,-0.3974,-0.3927,-0.3926,-0.3925,-0.3924,0,-0.4475,-0.4469,-0.4425,-0.4379,-0.4342,-0.4305,-0.4269,-0.4244,-0.4227,-0.4191,-0.4137,-0.4104,-0.4038,-0.3984,-0.3933,-0.391,-0.3913,-0.3913,-0.3899,-0.3898,-0.3905,-0.3898,-0.4038,-0.3915,-0.3916,-0.3917,-0.3917,-0.3918,-0.4402,-0.4363,-0.4327,-0.4278,-0.425,-0.4216,-0.4176,-0.4156,-0.4111,-0.4057,-0.4053,-0.3994,-0.3955,-0.3887,-0.3862,-0.3814,-0.3827,-0.3808,-0.3802,-0.3797,-0.3793,-0.3915,-0.3805,-0.3805,-0.3806,-0.3806,-0.3806,0,-0.4297,-0.4274,-0.4229,-0.4178,-0.4139,-0.4148,-0.4108,-0.4075,-0.4023,-0.3988,-0.3946,-0.3883,-0.3831,-0.3802,-0.375,-0.3717,-0.3717,-0.3704,-0.3704,-0.3698,-0.3785,-0.3801,-0.3704,-0.3704,-0.3704,-0.3704,-0.3704,-0.3704,-0.4237,-0.4172,-0.4162,-0.4082,-0.4059,-0.4002,-0.3978,-0.3946,-0.3918,-0.3847,-0.3805,-0.3787,-0.3753,-0.3699,-0.3651,-0.3644,-0.3623,-0.3608,-0.3601,-0.3682,-0.3693,-0.3702,-0.3717,-0.3604,-0.3604,-0.3518,-0.3517,-0.3516]},{"header":{"parameterUnit":"m.s-1","parameterCategory":1,"la1":30.2991,"la2":30.254,"lo1":-89.0895,"lo2":-89.0444,"dy":0.0017,"dx":0.0017,"nx":28,"ny":28,"refTime":"2024-07-02T21:00:00:Z","depth":0,"parameterNumber":3,"parameterNumberName":"V-component_of_WINDS"},"data":[0,0,0,0,0,0,0,0,0,0,0,0,0,0,0,0,0,0,0,0,0,0,0,0,0,0,0,0,0,0,0,0,0,0,0,0,0,0,0,0,0,0,0,0,0,0,0,0,0,0,0,0,0,0,0,0,0,0,4.0535,4.0536,0,4.0662,4.0664,4.0665,4.0675,4.0674,4.0672,4.0671,4.0798,4.0803,4.0807,0,0,0,0,0,0,0,0,0,0,0,0,0,4.0297,4.0301,4.0535,4.0536,4.0538,4.0662,4.0664,4.0665,4.0675,4.0674,4.0672,4.067,4.0797,4.0802,4.0808,0,0,0,0,0,0,0,0,0,0,0,0,0,4.041,4.0303,4.0534,4.0558,4.0561,4.0662,4.0664,4.0666,4.0676,4.0673,4.0671,4.0669,4.0795,4.0802,4.0808,4.0893,0,0,4.083,4.0833,0,0,0,0,0,0,0,0,4.0403,4.0419,4.0553,4.0556,4.056,4.0651,4.0627,4.0742,4.0676,4.0632,4.0671,4.0668,4.0751,4.0761,4.0789,4.0899,4.0905,4.0831,4.0835,4.0838,4.084,0,0,0,0,0,0,0,4.0396,4.0413,4.0585,4.0555,4.0559,4.0561,4.0575,4.0648,4.0701,4.0636,4.0637,4.0652,4.0752,4.0783,4.0792,4.0906,4.083,4.0837,4.0841,4.0844,4.1092,4.1094,0,0,0,0,0,0,4.0384,4.0407,4.0581,4.0589,4.0475,4.0567,4.0582,4.0624,4.07,4.071,4.0654,4.0652,4.0772,4.0784,4.0797,4.0902,4.0838,4.0844,4.0848,4.109,4.1092,4.1095,0,0,0,0,0,0,4.0379,4.0399,4.0576,4.0498,4.0521,4.0573,4.062,4.0627,4.0658,4.0714,4.0723,4.0675,4.077,4.0787,4.0869,4.0906,4.0847,4.0854,4.1087,4.109,4.1094,4.1111,0,0,0,0,0,0,4.0372,4.0397,4.0431,4.0499,4.0525,4.0647,4.0622,4.0631,4.067,4.0669,4.0737,4.0746,4.077,4.0859,4.0876,4.0915,4.0859,4.1084,4.1088,4.1093,4.1107,4.1115,4.1121,0,0,0,0,0,4.0363,4.043,4.0433,4.0454,4.0568,4.0649,4.0664,4.0692,4.0673,4.0707,4.0743,4.0744,4.0899,4.0867,4.0887,4.0928,4.1082,4.1087,4.1092,4.1104,4.1113,4.1121,0,0,0,0,0,0,4.0364,4.0439,4.0443,4.0534,4.0585,4.0651,4.0694,4.07,4.0757,4.0754,4.0784,4.08,4.0881,4.0912,4.0876,4.1014,4.0988,4.0998,4.0991,4.1,4.1006,4.0997,4.0865,0,0,0,0,0,4.0375,4.0436,4.0498,4.0572,4.0598,4.0642,4.0678,4.0695,4.0749,4.077,4.0812,4.0864,4.0924,4.0963,4.1022,4.1112,4.1126,4.1149,4.1156,4.1161,4.117,4.1219,4.123,4.1113,4.1113,4.1113,0,0,4.0398,4.0447,4.0483,4.0573,4.0615,4.0677,4.066,4.0725,4.0771,4.078,4.0861,4.0893,4.0953,4.1039,4.1079,4.1068,4.1205,4.1168,4.1172,4.1178,4.1226,4.1237,4.1247,4.1116,4.1116,4.1115,0,0,4.0472,4.0514,4.0581,4.0624,4.0687,4.0716,4.0732,4.0797,4.0819,4.0901,4.0909,4.0963,4.1066,4.1108,4.1143,4.1232,4.1235,4.125,4.1286,4.1334,4.1343,4.1352,4.1384,4.1395,4.1258,4.1258,4.1258,0,4.0492,4.0586,4.0614,4.0681,4.072,4.0731,4.0799,4.0838,4.0917,4.0943,4.093,4.106,4.1101,4.1197,4.1219,4.1247,4.1265,4.1243,4.134,4.1348,4.1357,4.1388,4.1399,4.1259,4.1259,4.1259,4.1259,0,4.0608,4.0673,4.0719,4.0796,4.0841,4.0907,4.0944,4.0986,4.0998,4.1028,4.111,4.116,4.1229,4.1253,4.1265,4.1351,4.1342,4.1334,4.1309,4.1369,4.1398,4.141,4.1261,4.1261,4.126,4.126,0,0,4.0687,4.0779,4.0795,4.0831,4.0901,4.0952,4.1018,4.1086,4.1121,4.1175,4.1231,4.1318,4.1311,4.135,4.1367,4.141,4.1477,4.1396,4.1398,4.141,4.1575,4.1581,4.1595,4.1479,4.1481,4.1483,4.157,0,4.0769,4.0888,4.0916,4.1018,4.1078,4.1089,4.1147,4.1196,4.1225,4.128,4.1311,4.1373,4.1359,4.1383,4.1425,4.146,4.1511,4.1454,4.1531,4.1534,4.1517,4.161,4.1617,4.1697,4.1582,4.1584,4.1585,0,4.0881,4.0938,4.1047,4.111,4.1136,4.1188,4.1252,4.1304,4.136,4.1378,4.1422,4.1435,4.1503,4.1474,4.1569,4.1529,4.1562,4.1584,4.1588,4.1597,4.1564,4.1622,4.1723,4.1735,4.1603,4.1602,4.1601,0,4.0928,4.1032,4.1111,4.1141,4.1216,4.1252,4.1285,4.1338,4.1377,4.1433,4.1459,4.1522,4.1556,4.1604,4.1633,4.1609,4.1725,4.1698,4.1742,4.1741,4.1767,4.1765,4.1875,4.1786,4.1786,4.1786,4.1786,0,4.1017,4.1084,4.1133,4.1182,4.1256,4.1286,4.1358,4.1391,4.1438,4.1492,4.1505,4.1555,4.159,4.1645,4.1668,4.1743,4.1758,4.1774,4.178,4.1774,4.1772,4.1796,4.1792,4.1789,4.1788,4.1788,4.1787,0,4.1083,4.1119,4.1206,4.127,4.1288,4.1339,4.1394,4.1441,4.147,4.1538,4.1556,4.1602,4.1667,4.17,4.1781,4.1797,4.1881,4.1883,4.1863,4.1865,4.1907,4.1903,4.2037,4.2056,4.1955,4.1956,4.1956,0,4.1139,4.119,4.126,4.1297,4.1331,4.1392,4.1432,4.1463,4.1504,4.1571,4.1609,4.1676,4.173,4.1834,4.1874,4.1936,4.1939,4.1982,4.1949,4.1941,4.1941,4.1938,4.1943,4.1988,4.1989,4.199,4.1991,0,4.1233,4.1248,4.1306,4.1371,4.1419,4.1471,4.1522,4.1552,4.159,4.1636,4.1704,4.1746,4.1829,4.1895,4.196,4.1992,4.1998,4.2001,4.2014,4.2009,4.1996,4.2004,4.188,4.1998,4.1997,4.1997,4.1996,4.1996,4.1296,4.1342,4.1398,4.1463,4.1504,4.1552,4.1599,4.1634,4.1692,4.1762,4.1776,4.1848,4.1901,4.1989,4.2024,4.2079,4.207,4.2089,4.2095,4.2099,4.2101,4.1986,4.2091,4.2091,4.2091,4.2091,4.209,0,4.1391,4.1428,4.1487,4.1559,4.1609,4.161,4.1667,4.1709,4.1772,4.1821,4.1875,4.1952,4.2016,4.206,4.2124,4.216,4.2164,4.2176,4.2174,4.2181,4.2106,4.2088,4.2172,4.2172,4.2171,4.2171,4.2171,4.2171,4.1447,4.1526,4.1547,4.1646,4.1682,4.1753,4.1785,4.1828,4.1868,4.1954,4.2007,4.2036,4.2084,4.2151,4.2209,4.222,4.2244,4.2255,4.2267,4.2195,4.2187,4.2179,4.2162,4.226,4.226,4.2338,4.2339,4.2339]}]]